INMARSAT 4-F2

Last updated on Sept. 30, 2020, 5:50 a.m. UTC

1 28899U 05044A   20273.86828324 -.00000004  00000-0  00000-0 0  9999
2 28899   3.0823  30.8680 0003001 158.9375 195.7699  1.00271662 54595
UTC
Height (km)
Latitude
Longitude
Inclination
Orbital Period
UTC large
Height (km)
Speed (km/s)
/
Latitude / Longitude
Inclination (degrees)
Orbital Period (minutes)
Azimuth
Elevation
Range (km)
Doppler Factor
iOS Compass Heading
iOS Angle

Next 30 passes for location: Hong Kong

Rise time Rise Azimuth (degrees) Set time Set Azimuth (degrees) Duration Max altitude (degrees)

No matching passes for this satellites